Printer-friendly version

IAU Minor Planet Center

Minor Planet Center

MPEC 2005-E79 : 2002 EV11

The following Minor Planet Electronic Circular may be linked-to from your own Web pages, but must not otherwise be redistributed electronically.


Read MPEC 2005-E78 Read MPEC 2005-E80


M.P.E.C. 2005-E79                                Issued 2005 Mar. 14, 11:59 UT

     The Minor Planet Electronic Circulars contain information on unusual
         minor planets and routine data on comets.  They are published
   on behalf of Commission 20 of the International Astronomical Union by the
          Minor Planet Center, Smithsonian Astrophysical Observatory,
                          Cambridge, MA 02138, U.S.A.

                  Supported in part by the Brinson Foundation
             Prepared using the Tamkin Foundation Computer Network

                              MPC@CFA.HARVARD.EDU
          URL http://cfa-www.harvard.edu/iau/mpc.html  ISSN 1523-6714

                                   2002 EV11

                           Revision to MPEC 2002-F09

Additional Observations:
     K02E11V  C2005 03 13.34013 12 41 06.57 -21 11 33.2          16.7 R EE079699
     K02E11V  C2005 03 13.35639 12 40 50.29 -21 08 02.5                 EE079699
     K02E11V  C2005 03 13.37264 12 40 34.00 -21 04 31.1                 EE079699
     K02E11V  C2005 03 13.38890 12 40 17.84 -21 01 01.2                 EE079699
     K02E11V  C2005 03 13.53385 12 38 00.06 -20 28 52.4          16.9 R EE079474
     K02E11V  C2005 03 13.53455 12 37 59.41 -20 28 43.8          16.9 R EE079474
     K02E11V  C2005 03 13.53524 12 37 58.74 -20 28 34.8          17.0 R EE079474
     K02E11V  C2005 03 13.53733 12 37 56.72 -20 28 08.5          16.9 R EE079474
     K02E11V  C2005 03 13.54149 12 37 52.72 -20 27 15.8          16.9 R EE079474
     K02E11V  C2005 03 13.59147 12 37 05.98 -20 16 55.1          17.7 R EE079E12
     K02E11V  C2005 03 13.59189 12 37 05.60 -20 16 49.5          17.4 R EE079E12
     K02E11V  C2005 03 13.59230 12 37 05.20 -20 16 44.6          17.3 R EE079E12
     K02E11V  C2005 03 13.59271 12 37 04.81 -20 16 39.1          17.3 R EE079E12
     K02E11V  C2005 03 13.69311 12 35 28.84 -19 55 26.2          16.6 R EE079474
     K02E11V  C2005 03 13.69392 12 35 28.08 -19 55 16.1          16.7 R EE079474
     K02E11V  C2005 03 13.69462 12 35 27.42 -19 55 07.4          16.7 R EE079474
     K02E11V  C2005 03 13.69670 12 35 25.49 -19 54 41.2          16.6 R EE079474
     K02E11V  C2005 03 13.69902 12 35 23.34 -19 54 12.3          16.6 R EE079474
     K02E11V  C2005 03 13.79392 12 33 56.18 -19 34 45.4                 EE079E12
     K02E11V  C2005 03 13.79433 12 33 55.85 -19 34 40.6                 EE079E12
     K02E11V  C2005 03 13.79475 12 33 55.49 -19 34 35.0                 EE079E12
     K02E11V  C2005 03 13.79517 12 33 55.07 -19 34 30.3                 EE079E12
     K02E11V 2C2005 03 14.30992 12 26 36.93 -17 53 21.4          17.5 R EE079H06
     K02E11V 2C2005 03 14.31391 12 26 33.58 -17 52 36.0          17.0 R EE079H06
     K02E11V  C2005 03 14.31398 12 26 33.73 -17 52 32.4          16.8 R EE079854
     K02E11V  C2005 03 14.31459 12 26 33.23 -17 52 25.7          16.6 R EE079854
     K02E11V  C2005 03 14.31520 12 26 32.68 -17 52 18.4          16.8 R EE079854
     K02E11V 2C2005 03 14.31779 12 26 30.34 -17 51 50.7          17.2 R EE079H06
     K02E11V  C2005 03 14.32490 12 26 24.56 -17 50 26.8          16.7 R EE079854
     K02E11V  C2005 03 14.32550 12 26 24.08 -17 50 20.0          16.9 R EE079854
     K02E11V  C2005 03 14.32611 12 26 23.54 -17 50 12.7          17.2 R EE079854

Observer details:
474 Mount John Observatory, Lake Tekapo.  Observer A. C. Gilmore.  Measurers
    A. C. Gilmore, P. M. Kilmartin.  1.0-m f/7.7 reflector + CCD.
699 Lowell Observatory-LONEOS.  Observer M. E. Van Ness.  0.59-m LONEOS
    Schmidt + CCD.
854 Sabino Canyon Observatory, Tucson.  Observer J. E. McGaha.  0.36-m f/10.0
    Schmidt-Cassegrain + CCD.
E12 Siding Spring Survey.  Observer R. H. McNaught.  Measurers E. C. Beshore,
    C. M. Casey, E. J. Christensen, G. J. Garradd, R. E. Hill, S. M. Larson,
    R. H. McNaught.  0.5-m Uppsala Schmidt + CCD.
H06 New Mexico Skies Observatory.  Observer R. Hutsebaut.  0.25-m reflector
    + CCD.

First and last observations above in comparison with prediction:
Residuals in seconds of arc (or two decimals in degrees), reference and Delta-T
050313 699 3.44- 3.30-    050314 854 4.05- 2.33-    MPO 30703   +2.3 day

Orbital elements:
2002 EV11
Epoch 2005 Jan. 30.0 TT = JDT 2453400.5                 MPC
M   1.30302              (2000.0)            P               Q
n   0.32526189     Peri.  216.27618     +0.74893160     -0.66236353
a   2.0940189      Node   185.33048     +0.64644026     +0.73673368
e   0.8921315      Incl.   12.04784     +0.14565866     +0.13600751
P   3.03           H   20.1           G   0.15           U   4
Residuals in seconds of arc
020313 704  0.8-  0.2+    020317 557  1.0-  0.1+    050313 474  0.1+  0.1-
020313 704  1.2-  0.4-    020317 557  1.4-  0.8+    050313 474  0.1+  0.3-
020313 704  1.5-  0.0     020318 651  0.8+  0.2-    050313 474  0.2+  0.3-
020313 704  0.9+  0.9-    020318 651  0.5-  0.4+    050313 E12  0.4-  0.1+
020313 704  0.2-  0.6-    020318 651  0.9-  0.2-    050313 E12  0.1-  0.4+
020314 557  0.4-  1.7+    020322 649  0.2+  0.7-    050313 E12  0.2-  0.2+
020314 557  0.2-  0.6-    020322 649  0.0   0.5-    050313 E12  0.2-  0.5+
020314 557  1.0+  0.2+    020322 649  0.0   0.6-    050313 474  0.1+  0.3-
020314 557 (2.5-  0.7-)   020402 658  1.6+  0.5+    050313 474  0.1+  0.3-
020314 557 (2.7-  0.6-)   020402 658  0.2-  0.2+    050313 474  0.1-  0.4-
020314 246 (2.1+  0.7+)   020402 658  0.0   0.3+    050313 474  0.0   0.2-
020314 246  0.9+  1.2-    020403 413  0.2-  0.2-    050313 474  0.2+  0.3-
020314 246  0.1+  0.5+    020403 413  0.3-  0.1-    050313 E12  0.7-  0.5+
020314 246  0.7-  1.2+    020403 246  0.8-  1.0+    050313 E12  0.1-  0.2+
020314 246 (1.2+  2.4-)   020403 246  1.6-  0.9+    050313 E12  0.3+  0.6+
020315 704  1.1+  0.3+    020405 696  0.6-  0.0     050313 E12  0.3-  0.1+
020315 704  0.1+  0.4-    020405 696  0.5-  0.9-    050314 H06  1.3+  1.2-
020315 704  0.8+  0.3+    020418 291  0.3+  0.5+    050314 H06  1.2+  1.8-
020315 704  1.4+  0.5+    020418 291  1.4+  1.4-    050314 854  0.1-  0.4+
020316 704  0.6+  0.0     020418 291  0.6+  0.6-    050314 854  0.1+  0.1+
020316 704  0.4+  0.7+    050313 699  0.1+  0.2-    050314 854  0.5-  0.4+
020316 704  0.8+  0.4+    050313 699  0.5+  0.5-    050314 H06  1.3+  1.1-
020316 704  0.1-  0.3-    050313 699  0.1-  0.3+    050314 854  0.6-  0.4+
020317 422  0.1+  1.3-    050313 699  0.5+  0.3-    050314 854  0.3-  0.3+
020317 422  0.4-  0.2-    050313 474  0.2-  0.1-    050314 854  0.7-  0.6+
020317 557  0.3+  0.9+    050313 474  0.2+  0.4-

Ephemeris:
2002 EV11                a,e,i = 2.09, 0.89, 12                  q = 0.2259
Date    TT    R. A. (2000) Decl.     Delta      r     Elong.  Phase     V
2005 03 11    13 29.88   -30 39.1    0.127    1.086   134.4    40.8    17.4
2005 03 21    11 31.76   -03 45.4    0.257    1.251   171.7     6.6    18.1
2005 03 31    11 04.16   +04 08.4    0.433    1.404   155.2    17.4    19.9
2005 04 10    10 55.53   +07 07.5    0.627    1.546   142.3    23.4    21.1
2005 04 20    10 54.38   +08 19.4    0.833    1.679   131.7    26.5    22.0

Timothy B. Spahr             (C) Copyright 2005 MPC           M.P.E.C. 2005-E79

Read MPEC 2005-E78 Read MPEC 2005-E80


Our Web policy. Index to the CBAT/MPC/ICQ pages.


Valid HTML 4.01!